Orbital Elements at Epoch 2459000.5 (2020-May-31.0) TDB
Reference: JPL 12 (heliocentric ecliptic J2000)
Element | Value | Uncertainty (1-sigma) | Units |
e | .0197406506156615 | 1.2338e-07 | |
a | 2.667983485333755 | 3.3419e-08 | au |
q | 2.615315755501426 | 3.1451e-07 | au |
i | 4.556669854680663 | 1.246e-05 | deg |
node | 186.4009120161064 | 8.7167e-05 | deg |
peri | 47.23177930515652 | 0.00027838 | deg |
M | 351.2850170729562 | 0.00025857 | deg |
tp | 2459039.033385937274 (2020-Jul-08.53338594) | 0.0011428 | TDB |
period | 1591.743673343519 4.36 | 2.9907e-05 8.188e-08 | d yr |
n | .2261670682464886 | 4.2494e-09 | deg/d |
Q | 2.720651215166083 | 3.4079e-08 | au |
|
| | Orbit Determination Parameters
Additional Information
|